When you browse on this site, cookies collect data to enhance your experience and personalize the content and advertising you see.
Visit our Privacy Policy to learn more. By continuing to use the site, you agree to this use of cookies and data.
  • In Netherlands
  • List of Countries
  • For 7 days
  • Water Temperature
  • Weather Map
  • Weather Widgets
  • user-avatar
    Login

    Hourly Weather Chakhansur

    Today, 6 June, Saturday

    Time Temperature Precipitation Wind Pressure Humidity
    00:00 +38°C° 0 mm 8 mps 711 mmHg 9%
    01:00 +36°C° 0 mm 7 mps 711 mmHg 10%
    02:00 +35°C° 0 mm 6 mps 711 mmHg 11%
    03:00 +34°C° 0 mm 5 mps 711 mmHg 12%
    04:00 +34°C° 0 mm 5 mps 712 mmHg 13%
    05:00 +35°C° 0 mm 5 mps 712 mmHg 12%
    06:00 +36°C° 0 mm 5 mps 713 mmHg 11%
    07:00 +37°C° 0 mm 5 mps 713 mmHg 11%
    08:00 +41°C° 0 mm 6 mps 713 mmHg 9%
    09:00 +45°C° 0 mm 7 mps 713 mmHg 7%
    10:00 +47°C° 0 mm 7 mps 714 mmHg 5%
    11:00 +49°C° 0 mm 7 mps 713 mmHg 5%
    12:00 +50°C° 0 mm 7 mps 713 mmHg 4%
    13:00 +51°C° 0 mm 8 mps 712 mmHg 4%
    14:00 +51°C° 0 mm 8 mps 711 mmHg 3%
    15:00 +51°C° 0 mm 9 mps 711 mmHg 3%
    16:00 +52°C° 0 mm 10 mps 710 mmHg 3%
    17:00 +49°C° 0 mm 10 mps 710 mmHg 3%
    18:00 +47°C° 0 mm 11 mps 710 mmHg 4%
    19:00 +44°C° 0 mm 11 mps 710 mmHg 5%
    20:00 +43°C° 0 mm 11 mps 710 mmHg 6%
    21:00 +40°C° 0 mm 10 mps 710 mmHg 7%
    22:00 +39°C° 0 mm 10 mps 710 mmHg 8%
    23:00 +38°C° 0 mm 9 mps 710 mmHg 10%

    Tomorrow, 7 June, Sunday

    Time Temperature Precipitation Wind Pressure Humidity
    00:00 +35°C° 0 mm 8 mps 710 mmHg 11%
    01:00 +34°C° 0 mm 7 mps 710 mmHg 12%
    02:00 +33°C° 0 mm 6 mps 710 mmHg 13%
    03:00 +32°C° 0 mm 6 mps 710 mmHg 14%
    04:00 +30°C° 0 mm 6 mps 709 mmHg 15%
    05:00 +32°C° 0 mm 6 mps 710 mmHg 13%
    06:00 +33°C° 0 mm 6 mps 711 mmHg 12%
    07:00 +34°C° 0 mm 7 mps 711 mmHg 11%
    08:00 +38°C° 0 mm 6 mps 711 mmHg 9%
    09:00 +40°C° 0 mm 6 mps 712 mmHg 7%
    10:00 +43°C° 0 mm 5 mps 712 mmHg 6%
    11:00 +45°C° 0 mm 5 mps 712 mmHg 5%
    12:00 +45°C° 0 mm 4 mps 711 mmHg 4%
    13:00 +46°C° 0 mm 3 mps 711 mmHg 3%
    14:00 +47°C° 0 mm 3 mps 711 mmHg 3%
    15:00 +48°C° 0 mm 4 mps 710 mmHg 3%
    16:00 +49°C° 0 mm 4 mps 710 mmHg 2%
    17:00 +45°C° 0 mm 4 mps 709 mmHg 3%
    18:00 +42°C° 0 mm 4 mps 709 mmHg 4%
    19:00 +40°C° 0 mm 4 mps 709 mmHg 5%
    20:00 +39°C° 0 mm 5 mps 709 mmHg 7%
    21:00 +38°C° 0 mm 6 mps 709 mmHg 8%
    22:00 +37°C° 0 mm 8 mps 710 mmHg 10%
    23:00 +35°C° 0 mm 8 mps 710 mmHg 11%

    Day after tomorrow, 8 June, Monday

    Time Temperature Precipitation Wind Pressure Humidity
    00:00 +34°C° 0 mm 8 mps 710 mmHg 12%
    01:00 +33°C° 0 mm 8 mps 710 mmHg 12%
    02:00 +31°C° 0 mm 9 mps 710 mmHg 16%
    03:00 +29°C° 0 mm 9 mps 709 mmHg 20%
    04:00 +28°C° 0 mm 9 mps 709 mmHg 24%
    05:00 +28°C° 0 mm 10 mps 710 mmHg 27%
    06:00 +29°C° 0 mm 11 mps 711 mmHg 30%
    07:00 +29°C° 0 mm 12 mps 711 mmHg 33%
    08:00 +33°C° 0 mm 12 mps 712 mmHg 28%
    09:00 +36°C° 0 mm 12 mps 712 mmHg 23%
    10:00 +39°C° 0 mm 12 mps 712 mmHg 19%
    11:00 +42°C° 0 mm 11 mps 712 mmHg 16%
    12:00 +44°C° 0 mm 10 mps 712 mmHg 13%
    13:00 +47°C° 0 mm 10 mps 712 mmHg 10%
    14:00 +47°C° 0 mm 10 mps 711 mmHg 10%
    15:00 +47°C° 0 mm 10 mps 711 mmHg 10%
    16:00 +47°C° 0 mm 9 mps 711 mmHg 9%
    17:00 +44°C° 0 mm 9 mps 711 mmHg 11%
    18:00 +42°C° 0 mm 9 mps 711 mmHg 13%
    19:00 +39°C° 0 mm 8 mps 711 mmHg 14%
    20:00 +38°C° 0 mm 9 mps 711 mmHg 17%
    21:00 +35°C° 0 mm 9 mps 712 mmHg 20%
    22:00 +34°C° 0 mm 10 mps 712 mmHg 23%
    23:00 +33°C° 0 mm 10 mps 712 mmHg 24%

    9 June, Tuesday

    Time Temperature Precipitation Wind Pressure Humidity
    00:00 +32°C° 0 mm 9 mps 712 mmHg 25%
    01:00 +31°C° 0 mm 9 mps 712 mmHg 26%
    02:00 +29°C° 0 mm 9 mps 712 mmHg 27%
    03:00 +28°C° 0 mm 10 mps 712 mmHg 27%
    04:00 +28°C° 0 mm 10 mps 712 mmHg 27%
    05:00 +29°C° 0 mm 10 mps 713 mmHg 26%
    06:00 +31°C° 0 mm 11 mps 714 mmHg 24%
    07:00 +32°C° 0 mm 12 mps 714 mmHg 23%
    08:00 +36°C° 0 mm 12 mps 714 mmHg 19%
    09:00 +38°C° 0 mm 12 mps 714 mmHg 16%
    10:00 +41°C° 0 mm 12 mps 714 mmHg 12%
    11:00 +42°C° 0 mm 12 mps 714 mmHg 11%
    12:00 +44°C° 0 mm 11 mps 714 mmHg 9%
    13:00 +46°C° 0 mm 11 mps 713 mmHg 8%
    14:00 +46°C° 0 mm 11 mps 713 mmHg 7%
    15:00 +46°C° 0 mm 11 mps 712 mmHg 7%
    16:00 +46°C° 0 mm 12 mps 712 mmHg 6%
    17:00 +43°C° 0 mm 10 mps 711 mmHg 7%
    18:00 +40°C° 0 mm 9 mps 711 mmHg 8%
    19:00 +39°C° 0 mm 7 mps 711 mmHg 9%
    20:00 +37°C° 0 mm 8 mps 712 mmHg 9%
    21:00 +35°C° 0 mm 9 mps 712 mmHg 10%
    22:00 +33°C° 0 mm 10 mps 712 mmHg 10%
    23:00 +33°C° 0 mm 10 mps 712 mmHg 10%

    10 June, Wednesday

    Time Temperature Precipitation Wind Pressure Humidity
    00:00 +32°C° 0 mm 9 mps 712 mmHg 11%
    01:00 +31°C° 0 mm 9 mps 711 mmHg 11%
    02:00 +29°C° 0 mm 10 mps 711 mmHg 11%
    03:00 +28°C° 0 mm 10 mps 711 mmHg 11%
    04:00 +28°C° 0 mm 10 mps 711 mmHg 12%
    05:00 +29°C° 0 mm 11 mps 712 mmHg 11%
    06:00 +31°C° 0 mm 12 mps 712 mmHg 11%
    07:00 +32°C° 0 mm 13 mps 713 mmHg 10%
    08:00 +34°C° 0 mm 13 mps 713 mmHg 9%
    09:00 +38°C° 0 mm 13 mps 713 mmHg 7%
    10:00 +41°C° 0 mm 13 mps 713 mmHg 6%
    11:00 +43°C° 0 mm 13 mps 713 mmHg 5%
    12:00 +46°C° 0 mm 13 mps 713 mmHg 4%
    13:00 +47°C° 0 mm 13 mps 713 mmHg 3%
    14:00 +47°C° 0 mm 13 mps 712 mmHg 3%
    15:00 +47°C° 0 mm 13 mps 712 mmHg 3%
    16:00 +47°C° 0 mm 13 mps 711 mmHg 3%
    17:00 +44°C° 0 mm 11 mps 711 mmHg 4%
    18:00 +42°C° 0 mm 10 mps 711 mmHg 5%
    19:00 +39°C° 0 mm 9 mps 711 mmHg 6%
    20:00 +37°C° 0 mm 9 mps 711 mmHg 8%
    21:00 +36°C° 0 mm 10 mps 711 mmHg 9%
    22:00 +33°C° 0 mm 10 mps 711 mmHg 11%
    23:00 +32°C° 0 mm 10 mps 711 mmHg 12%

    11 June, Thursday

    Time Temperature Precipitation Wind Pressure Humidity
    00:00 +31°C° 0 mm 11 mps 711 mmHg 12%
    01:00 +31°C° 0 mm 11 mps 710 mmHg 13%
    02:00 +29°C° 0 mm 11 mps 710 mmHg 13%
    03:00 +28°C° 0 mm 11 mps 710 mmHg 14%
    04:00 +27°C° 0 mm 11 mps 710 mmHg 15%
    05:00 +28°C° 0 mm 11 mps 711 mmHg 14%
    06:00 +29°C° 0 mm 12 mps 711 mmHg 13%
    07:00 +31°C° 0 mm 12 mps 712 mmHg 13%
    08:00 +34°C° 0 mm 12 mps 712 mmHg 11%
    09:00 +37°C° 0 mm 12 mps 712 mmHg 9%
    10:00 +41°C° 0 mm 12 mps 712 mmHg 7%
    11:00 +43°C° 0 mm 12 mps 712 mmHg 6%
    12:00 +44°C° 0 mm 12 mps 711 mmHg 5%
    13:00 +47°C° 0 mm 12 mps 711 mmHg 4%
    14:00 +47°C° 0 mm 12 mps 710 mmHg 4%
    15:00 +47°C° 0 mm 12 mps 710 mmHg 4%
    16:00 +47°C° 0 mm 12 mps 710 mmHg 4%
    17:00 +44°C° 0 mm 12 mps 710 mmHg 5%
    18:00 +42°C° 0 mm 11 mps 709 mmHg 6%
    19:00 +39°C° 0 mm 10 mps 709 mmHg 7%
    20:00 +37°C° 0 mm 11 mps 710 mmHg 9%
    21:00 +36°C° 0 mm 11 mps 710 mmHg 10%
    22:00 +33°C° 0 mm 11 mps 710 mmHg 12%
    23:00 +32°C° 0 mm 11 mps 710 mmHg 12%
    Show more